weather.gov     
National Weather Service

Regional Weather Roundup
NWS Homepage
This page is being discontinued on March 12, 2014.
The same data is available at this site. Please update your bookmarks.
Thank you, and we apologize for the inconvenience.
Please send an email to SR-SRH.Webmaster@noaa.gov with any concerns.


Current Version
Previous Version:    01  02  03  04  05  06  07  08  09  10  11  12  13  14  15  16  17  18  19  20  21  22  23  24  25  26  27  28  29  30  
   31  32  33  34  35  36  37  38  39  40  41  42  43  44  45  46  47  48  49  50  51  52  53  54  55  56  57  58  59  60  
[Printable]
802
ASUS44 KFWD 310615
RWRTX
NORTH TEXAS HOURLY WEATHER ROUNDUP
NATIONAL WEATHER SERVICE FORT WORTH TX
100 AM CDT SUN AUG 31 2014

NOTE: "FAIR" INDICATES FEW OR NO CLOUDS BELOW 12,000 FEET WITH NO
SIGNIFICANT WEATHER AND/OR OBSTRUCTIONS TO VISIBILITY.

TXZ118-119-310700-
DALLAS/FORT WORTH METROPLEX

CITY           SKY/WX    TMP DP  RH WIND       PRES   REMARKS
DFW AIRPORT    FAIR      82  68  62 S9        29.92F
6HR MIN TEMP:  82; 6HR MAX TEMP:  92;

DALLAS LOVE    FAIR      82  69  64 S7        29.93F
6HR MIN TEMP:  81; 6HR MAX TEMP:  92;

FTW MEACHAM    FAIR      82  67  60 S5        29.92F
6HR MIN TEMP:  82; 6HR MAX TEMP:  93;

DAL-EXECUTIVE  FAIR      81  69  67 S7        29.93F
6HR MIN TEMP:  81; 6HR MAX TEMP:  92;

FTW-ALLIANCE   FAIR      79  68  69 S5        29.92F
6HR MIN TEMP:  79; 6HR MAX TEMP:  91;

FTW-NAS-JRB    FAIR      83  66  56 S9        29.97F
6HR MIN TEMP:  83; 6HR MAX TEMP:  94;

FTW-SPINKS     FAIR      78  68  71 CALM      29.95S
6HR MIN TEMP:  78; 6HR MAX TEMP:  90;

ARLINGTON      FAIR      79  68  69 SE3       29.93F
6HR MIN TEMP:  79; 6HR MAX TEMP:  91;

GRAND PRAIRIE  FAIR      81  67  63 SE3       29.95S
6HR MIN TEMP:  81; 6HR MAX TEMP:  91;

ADDISON        FAIR      83  67  57 S8        29.94F
6HR MIN TEMP:  83; 6HR MAX TEMP:  92;

MESQUITE       FAIR      75  69  80 S6        29.93F
6HR MIN TEMP:  74; 6HR MAX TEMP:  91;

LANCASTER      FAIR      73  69  87 CALM      29.95S
6HR MIN TEMP:  73; 6HR MAX TEMP:  90;

$$

TXZ091>094-102>105-117-120-121-131>134-310700-
NORTH CENTRAL TEXAS

CITY           SKY/WX    TMP DP  RH WIND       PRES   REMARKS
SHRMAN/DENISON FAIR      78  67  68 SE8       29.95S
6HR MIN TEMP:  73; 6HR MAX TEMP:  90;

GAINESVILLE    FAIR      76  70  81 SE3       29.95S
6HR MIN TEMP:  76; 6HR MAX TEMP:  89;

BOWIE          FAIR      77  69  77 S6        29.94S
6HR MIN TEMP:  76; 6HR MAX TEMP:  89;

BRIDGEPORT     FAIR      80  66  62 S9        29.95F
6HR MIN TEMP:  80; 6HR MAX TEMP:  91;

DECATUR        FAIR      79  67  67 S9        29.94F
6HR MIN TEMP:  79; 6HR MAX TEMP:  90;

DENTON         FAIR      80  69  69 S8        29.93S
6HR MIN TEMP:  79; 6HR MAX TEMP:  91;

MCKINNEY       FAIR      78  70  76 SE3       29.94R
6HR MIN TEMP:  77; 6HR MAX TEMP:  89;

GREENVILLE     FAIR      73  70  88 E5        29.95S
ROCKWALL       FAIR      77  70  78 CALM      29.93S
6HR MIN TEMP:  77; 6HR MAX TEMP:  89;

TERRELL        FAIR      78  72  81 SE5       29.94S
6HR MIN TEMP:  78; 6HR MAX TEMP:  91;

WAXAHACHIE     FAIR      75  67  75 CALM      29.95F
6HR MIN TEMP:  75; 6HR MAX TEMP:  90;

CLEBURNE       FAIR      79  70  73 S6        29.96S
GRANBURY       FAIR      81  69  66 CALM      29.95F
6HR MIN TEMP:  81; 6HR MAX TEMP:  92;

$$

TXZ083>090-098>101-113>116-127>130-139>142-154-155-310700-
WESTERN NORTH TEXAS

CITY           SKY/WX    TMP DP  RH WIND       PRES   REMARKS
WICHITA FALLS  FAIR      79  68  69 S10       29.91F
6HR MIN TEMP:  77; 6HR MAX TEMP:  94;

WF-KICKAPOO    FAIR      78  67  69 CALM      29.93S
6HR MIN TEMP:  78; 6HR MAX TEMP:  94;

VERNON         FAIR      79  65  62 S9        29.92S
6HR MIN TEMP:  68; 6HR MAX TEMP: 100;

ABILENE        FAIR      80  66  62 S10       29.97S
6HR MIN TEMP:  80; 6HR MAX TEMP:  94;

ABILENE-DYESS  FAIR      78  67  68 S9        29.96S
6HR MIN TEMP:  78; 6HR MAX TEMP:  93;

BRECKENRIDGE   FAIR      82  67  61 S8        29.94F
6HR MIN TEMP:  82; 6HR MAX TEMP:  96;

GRAHAM         FAIR      80  68  66 SE6       29.93S
6HR MIN TEMP:  80; 6HR MAX TEMP:  94;

MINERAL WELLS  FAIR      78  70  76 SE8       29.93F
6HR MIN TEMP:  78; 6HR MAX TEMP:  90;

STEPHENVILLE   FAIR      76  68  75 SE3       29.99S
6HR MIN TEMP:  76; 6HR MAX TEMP:  87;

BROWNWOOD      MOCLDY    75  70  83 CALM      29.97F
COLEMAN        FAIR      77  66  70 S5        29.98F
6HR MIN TEMP:  77; 6HR MAX TEMP:  92;

BRADY          CLEAR     73  68  83 S3        29.98S
$$

TXZ143>147-156>162-174-175-310700-
CENTRAL TEXAS

CITY           SKY/WX    TMP DP  RH WIND       PRES   REMARKS
WACO           FAIR      81  71  71 S12       29.94S
6HR MIN TEMP:  78; 6HR MAX TEMP:  90;

WACO-MCGREGOR  FAIR      77  66  69 S9        29.95F
6HR MIN TEMP:  77; 6HR MAX TEMP:  91;

HILLSBORO      FAIR      79  67  65 SE7       29.94F
6HR MIN TEMP:  79; 6HR MAX TEMP:  90;

CORSICANA      FAIR      79  72  79 S10       29.95F
6HR MIN TEMP:  79; 6HR MAX TEMP:  89;

MEXIA          FAIR      76  73  89 S7        29.94F
6HR MIN TEMP:  76; 6HR MAX TEMP:  86;

HEARNE           N/A     76  72  86 SE6       29.96S
6HR MIN TEMP:  76; 6HR MAX TEMP:  90;

CAMERON        FAIR      79  72  80 S9        29.95S
6HR MIN TEMP:  79; 6HR MAX TEMP:  90;

TEMPLE         FAIR      79  68  69 S12       29.95S
6HR MIN TEMP:  79; 6HR MAX TEMP:  90;

KILLEEN        PTCLDY    79  72  78 SE8       29.96S
KILLEEN-SKYLRK FAIR      81  66  61 S7        29.95S
6HR MIN TEMP:  81; 6HR MAX TEMP:  90;

FORT HOOD      FAIR      82  71  69 SE7       29.95F
6HR MIN TEMP:  82; 6HR MAX TEMP:  91;

GATESVILLE     FAIR      79  70  73 SE3       29.97F
LAMPASAS       FAIR      78  72  80 CALM      29.96S
6HR MIN TEMP:  78; 6HR MAX TEMP:  83;

$$

TXZ095>097-106>112-122>126-135>138-148>153-164>167-310700-
EAST TEXAS

CITY           SKY/WX    TMP DP  RH WIND       PRES   REMARKS
PARIS          FAIR      75  66  73 SE7       29.95F
6HR MIN TEMP:  75; 6HR MAX TEMP:  88;

SULPHUR SPRNGS FAIR      77  72  83 SE6       29.97F
6HR MIN TEMP:  77; 6HR MAX TEMP:  89;

MOUNT PLEASANT FAIR      75  73  92 CALM      29.97S
6HR MIN TEMP:  75; 6HR MAX TEMP:  86;

GILMER         FAIR      79  75  89 S5        29.98S
MINEOLA        FAIR      79  75  89 CALM      29.97R
TYLER          FAIR      78  73  84 S7        29.96S
6HR MIN TEMP:  78; 6HR MAX TEMP:  89;

LONGVIEW       FAIR      77  73  87 S12       29.96R
6HR MIN TEMP:  77; 6HR MAX TEMP:  87;

MARSHALL       CLOUDY    78  74  87 S8        29.99S
6HR MIN TEMP:  78; 6HR MAX TEMP:  83;

ATHENS         FAIR      75  73  94 S5        29.95R
PALESTINE      FAIR      77  75  93 SE3       29.97S
JACKSONVILLE   FAIR      76  74  93 S9        29.99F
HENDERSON      FAIR      76  74  93 S5        29.98R
6HR MIN TEMP:  76; 6HR MAX TEMP:  85;

NACOGDOCHES    MOCLDY    75  72  88 S6        29.98F
6HR MIN TEMP:  75; 6HR MAX TEMP:  82;

LUFKIN         CLOUDY    79  73  82 S6        29.98S
6HR MIN TEMP:  78; 6HR MAX TEMP:  85;

$$

SUPPLEMENTAL OBSERVATIONS (CENTRAL)

CITY           SKY/WX    TMP DP  RH WIND       PRES   REMARKS
LAKE TEXOMA      N/A     73  66  78 E3          N/A
PAT MAYSE LAKE   N/A     77  70  78 SE9         N/A
GREENVILLE       N/A     75  70  83 SE2         N/A
CEDAR HILL       N/A     79  68  69 SE6         N/A
LAKE LIMESTONE   N/A     79  73  83 S5          N/A
MCGREGOR         N/A     79  70  73 S9          N/A
$$

SUPPLEMENTAL OBSERVATIONS (WEST)

CITY           SKY/WX    TMP DP  RH WIND       PRES   REMARKS
MILLERS CREEK    N/A     81  64  57 S9          N/A
GRANBURY         N/A     81  68  65 SE3         N/A




U.S. Dept. of Commerce
NOAA National Weather Service
1325 East West Highway
Silver Spring, MD 20910
E-mail: w-nws.webmaster@noaa.gov
Page last modified: May 16, 2007
NATIONAL WEATHER SERVICE: for Safety, for Work, for Fun - FOR LIFE